Time,TemperatureF,DewpointF,PressureIn,WindDirection,WindDirectionDegrees,WindSpeedMPH,WindSpeedGustMPH,Humidity,HourlyPrecipIn,Conditions,Clouds,dailyrainin,SoftwareType,DateUTC
2013-06-08 00:03:00,59.0,53.0,28.90,NNW,340,2.0,4.0,81,0.00,,,0.00,,2013-06-08 04:03:00,
2013-06-08 00:13:00,59.0,53.0,28.90,NNW,340,2.0,4.0,81,0.00,,,0.00,,2013-06-08 04:13:00,
2013-06-08 00:23:00,59.0,53.0,28.90,NNW,337,2.0,5.0,81,0.00,,,0.00,,2013-06-08 04:23:00,
2013-06-08 00:33:00,58.0,53.0,28.90,North,0,1.0,5.0,82,0.00,,,0.00,,2013-06-08 04:33:00,
2013-06-08 00:42:00,58.0,53.0,28.90,North,0,1.0,5.0,82,0.00,,,0.00,,2013-06-08 04:42:00,
2013-06-08 00:53:00,58.0,53.0,28.90,North,0,0.0,3.0,82,0.00,,,0.00,,2013-06-08 04:53:00,
2013-06-08 01:02:00,58.0,53.0,28.90,North,0,1.0,3.0,82,0.00,,,0.00,,2013-06-08 05:02:00,
2013-06-08 01:12:00,58.0,53.0,28.90,North,0,1.0,3.0,82,0.00,,,0.00,,2013-06-08 05:12:00,
2013-06-08 01:22:00,58.0,53.0,28.90,NNW,347,1.0,4.0,83,0.00,,,0.00,,2013-06-08 05:22:00,
2013-06-08 01:32:00,58.0,53.0,28.90,NNW,347,1.0,3.0,83,0.00,,,0.00,,2013-06-08 05:32:00,
2013-06-08 01:42:00,58.0,53.0,28.90,NNW,347,1.0,3.0,83,0.00,,,0.00,,2013-06-08 05:42:00,
2013-06-08 01:53:00,58.0,53.0,28.90,WNW,297,2.0,3.0,83,0.00,,,0.00,,2013-06-08 05:53:00,
2013-06-08 02:02:00,58.0,53.0,28.90,NNW,337,2.0,3.0,84,0.00,,,0.00,,2013-06-08 06:02:00,
2013-06-08 02:13:00,58.0,53.0,28.90,NNW,337,2.0,3.0,84,0.00,,,0.00,,2013-06-08 06:13:00,
2013-06-08 02:22:00,58.0,53.0,28.90,NNW,337,0.0,4.0,84,0.00,,,0.00,,2013-06-08 06:22:00,
2013-06-08 02:32:00,58.0,53.0,28.90,North,349,3.0,4.0,84,0.00,,,0.00,,2013-06-08 06:32:00,
2013-06-08 02:42:00,58.0,53.0,28.90,North,349,3.0,4.0,84,0.00,,,0.00,,2013-06-08 06:42:00,
2013-06-08 02:52:00,58.0,53.0,28.90,North,0,0.0,3.0,84,0.00,,,0.00,,2013-06-08 06:52:00,
2013-06-08 03:02:00,58.0,54.0,28.90,North,0,1.0,3.0,85,0.00,,,0.00,,2013-06-08 07:02:00,
2013-06-08 03:12:00,58.0,54.0,28.90,North,0,1.0,3.0,85,0.00,,,0.00,,2013-06-08 07:12:00,
2013-06-08 03:22:00,58.0,54.0,28.90,NNE,22,1.0,3.0,85,0.00,,,0.00,,2013-06-08 07:22:00,
2013-06-08 03:32:00,58.0,54.0,28.90,NNE,22,0.0,0.0,86,0.00,,,0.00,,2013-06-08 07:32:00,
2013-06-08 03:42:00,58.0,54.0,28.90,NNE,22,0.0,0.0,86,0.00,,,0.00,,2013-06-08 07:42:00,
2013-06-08 03:52:00,58.0,54.0,28.90,NNE,22,0.0,3.0,86,0.00,,,0.00,,2013-06-08 07:52:00,
2013-06-08 04:02:00,58.0,54.0,28.90,NNE,22,0.0,3.0,86,0.00,,,0.00,,2013-06-08 08:02:00,
2013-06-08 04:12:00,58.0,54.0,28.90,NNE,22,0.0,3.0,86,0.00,,,0.00,,2013-06-08 08:12:00,
2013-06-08 04:22:00,58.0,54.0,28.90,NNE,22,1.0,3.0,86,0.00,,,0.00,,2013-06-08 08:22:00,
2013-06-08 04:32:00,58.0,54.0,28.90,NNE,22,0.0,1.0,87,0.00,,,0.00,,2013-06-08 08:32:00,
2013-06-08 04:42:00,58.0,54.0,28.90,NNE,22,0.0,1.0,87,0.00,,,0.00,,2013-06-08 08:42:00,
2013-06-08 04:52:00,58.0,54.0,28.90,NNE,22,0.0,0.0,87,0.00,,,0.00,,2013-06-08 08:52:00,
2013-06-08 05:02:00,58.0,54.0,28.93,NNE,22,2.0,3.0,88,0.00,,,0.00,,2013-06-08 09:02:00,
2013-06-08 05:12:00,58.0,54.0,28.93,NNE,22,2.0,3.0,88,0.00,,,0.00,,2013-06-08 09:12:00,
2013-06-08 05:22:00,58.0,54.0,28.93,NNE,22,0.0,2.0,88,0.00,,,0.00,,2013-06-08 09:22:00,
2013-06-08 05:33:00,57.0,53.0,28.93,NNE,22,0.0,0.0,88,0.00,,,0.00,,2013-06-08 09:33:00,
2013-06-08 05:43:00,57.0,53.0,28.93,NNE,22,0.0,0.0,88,0.00,,,0.00,,2013-06-08 09:43:00,
2013-06-08 05:53:00,57.0,53.0,28.93,NNE,22,0.0,0.0,88,0.00,,,0.00,,2013-06-08 09:53:00,
2013-06-08 06:03:00,57.0,54.0,28.93,NNE,22,0.0,0.0,89,0.00,,,0.00,,2013-06-08 10:03:00,
2013-06-08 06:12:00,57.0,54.0,28.93,NNE,22,0.0,0.0,89,0.00,,,0.00,,2013-06-08 10:12:00,
2013-06-08 06:22:00,57.0,54.0,28.93,NNE,22,0.0,0.0,89,0.00,,,0.00,,2013-06-08 10:22:00,
2013-06-08 06:33:00,57.0,54.0,28.93,NNE,22,0.0,0.0,89,0.00,,,0.00,,2013-06-08 10:33:00,
2013-06-08 06:43:00,57.0,54.0,28.93,NNE,22,0.0,0.0,89,0.00,,,0.00,,2013-06-08 10:43:00,
2013-06-08 06:53:00,57.0,54.0,28.93,NNE,22,0.0,0.0,90,0.00,,,0.00,,2013-06-08 10:53:00,
2013-06-08 07:02:00,58.0,55.0,28.93,NNE,22,0.0,0.0,90,0.00,,,0.00,,2013-06-08 11:02:00,
2013-06-08 07:12:00,58.0,55.0,28.93,NNE,22,0.0,0.0,90,0.00,,,0.00,,2013-06-08 11:12:00,
2013-06-08 07:22:00,58.0,55.0,28.96,NNE,22,0.0,0.0,90,0.00,,,0.00,,2013-06-08 11:22:00,
2013-06-08 07:32:00,59.0,56.0,28.96,NNE,22,0.0,0.0,89,0.00,,,0.00,,2013-06-08 11:32:00,
2013-06-08 07:42:00,59.0,56.0,28.96,NNE,22,0.0,0.0,89,0.00,,,0.00,,2013-06-08 11:42:00,
2013-06-08 07:52:00,59.0,55.0,28.96,NNE,22,0.0,3.0,87,0.00,,,0.00,,2013-06-08 11:52:00,
2013-06-08 08:02:00,60.0,55.0,28.96,NNE,22,0.0,3.0,84,0.00,,,0.00,,2013-06-08 12:02:00,
2013-06-08 08:12:00,60.0,55.0,28.96,NNE,22,0.0,3.0,84,0.00,,,0.00,,2013-06-08 12:12:00,
2013-06-08 08:22:00,60.0,54.0,28.96,NNE,22,1.0,3.0,82,0.00,,,0.00,,2013-06-08 12:22:00,
2013-06-08 08:32:00,61.0,55.0,28.96,NNE,22,1.0,3.0,81,0.00,,,0.00,,2013-06-08 12:32:00,
2013-06-08 08:42:00,61.0,55.0,28.96,NNE,22,1.0,3.0,81,0.00,,,0.00,,2013-06-08 12:42:00,
2013-06-08 08:52:00,62.0,56.0,28.99,WNW,292,0.0,3.0,80,0.00,,,0.00,,2013-06-08 12:52:00,
2013-06-08 09:02:00,62.0,54.0,28.99,West,270,1.0,3.0,75,0.00,,,0.00,,2013-06-08 13:02:00,
2013-06-08 09:12:00,62.0,54.0,28.99,West,270,1.0,3.0,75,0.00,,,0.00,,2013-06-08 13:12:00,
2013-06-08 09:22:00,64.0,55.0,28.99,ENE,67,1.0,3.0,72,0.00,,,0.00,,2013-06-08 13:22:00,
2013-06-08 09:32:00,65.0,53.0,28.99,WNW,288,2.0,4.0,66,0.00,,,0.00,,2013-06-08 13:32:00,
2013-06-08 09:42:00,65.0,53.0,28.99,WNW,288,2.0,4.0,66,0.00,,,0.00,,2013-06-08 13:42:00,
2013-06-08 09:52:00,65.0,53.0,28.99,NNW,337,2.0,4.0,64,0.00,,,0.00,,2013-06-08 13:52:00,
2013-06-08 10:02:00,66.0,51.0,28.99,NW,315,2.0,4.0,59,0.00,,,0.00,,2013-06-08 14:02:00,
2013-06-08 10:12:00,66.0,51.0,28.99,NW,315,2.0,4.0,59,0.00,,,0.00,,2013-06-08 14:12:00,
2013-06-08 10:22:00,67.0,51.0,29.02,NW,315,1.0,3.0,56,0.00,,,0.00,,2013-06-08 14:22:00,
2013-06-08 10:32:00,69.0,49.0,29.03,West,264,2.0,6.0,49,0.00,,,0.00,,2013-06-08 14:32:00,
2013-06-08 10:42:00,69.0,49.0,29.03,West,264,2.0,6.0,49,0.00,,,0.00,,2013-06-08 14:42:00,
2013-06-08 10:52:00,68.0,47.0,28.99,SW,225,1.0,4.0,47,0.00,,,0.00,,2013-06-08 14:52:00,
2013-06-08 11:02:00,68.0,45.0,28.99,NNW,337,1.0,4.0,44,0.00,,,0.00,,2013-06-08 15:02:00,
2013-06-08 11:22:00,68.0,46.0,29.02,WSW,247,1.0,3.0,45,0.00,,,0.00,,2013-06-08 15:22:00,
2013-06-08 11:32:00,69.0,46.0,29.02,SSE,156,2.0,3.0,44,0.00,,,0.00,,2013-06-08 15:32:00,
2013-06-08 11:42:00,69.0,46.0,29.02,SSE,156,2.0,3.0,44,0.00,,,0.00,,2013-06-08 15:42:00,
2013-06-08 11:53:00,70.0,46.0,29.03,WSW,244,1.0,4.0,42,0.00,,,0.00,,2013-06-08 15:53:00,
2013-06-08 12:03:00,69.0,46.0,29.03,North,0,1.0,4.0,43,0.00,,,0.00,,2013-06-08 16:03:00,
2013-06-08 12:12:00,69.0,46.0,29.03,North,0,1.0,4.0,43,0.00,,,0.00,,2013-06-08 16:12:00,
2013-06-08 12:23:00,69.0,46.0,29.02,NW,315,1.0,4.0,43,0.00,,,0.00,,2013-06-08 16:23:00,
2013-06-08 12:33:00,73.0,47.0,29.03,WNW,292,1.0,4.0,40,0.00,,,0.00,,2013-06-08 16:33:00,
2013-06-08 12:53:00,73.0,45.0,29.03,West,275,3.0,6.0,37,0.00,,,0.00,,2013-06-08 16:53:00,
2013-06-08 13:02:00,74.0,45.0,29.06,WNW,295,3.0,5.0,35,0.00,,,0.00,,2013-06-08 17:02:00,
2013-06-08 13:23:00,74.0,44.0,29.06,West,270,3.0,4.0,34,0.00,,,0.00,,2013-06-08 17:23:00,
2013-06-08 13:32:00,75.0,46.0,29.06,West,279,1.0,4.0,36,0.00,,,0.00,,2013-06-08 17:32:00,
2013-06-08 13:52:00,74.0,45.0,29.06,WNW,284,2.0,6.0,36,0.00,,,0.00,,2013-06-08 17:52:00,
2013-06-08 14:02:00,75.0,43.0,29.03,North,351,4.0,6.0,32,0.00,,,0.00,,2013-06-08 18:02:00,
2013-06-08 14:22:00,76.0,45.0,29.03,East,93,2.0,4.0,33,0.00,,,0.00,,2013-06-08 18:22:00,
2013-06-08 14:32:00,77.0,45.0,29.03,WNW,294,2.0,7.0,32,0.00,,,0.00,,2013-06-08 18:32:00,
2013-06-08 14:52:00,80.0,46.0,29.03,NW,313,3.0,7.0,30,0.00,,,0.00,,2013-06-08 18:52:00,
2013-06-08 15:03:00,80.0,46.0,29.03,WSW,249,3.0,6.0,30,0.00,,,0.00,,2013-06-08 19:03:00,
2013-06-08 15:22:00,78.0,44.0,29.03,West,271,2.0,4.0,30,0.00,,,0.00,,2013-06-08 19:22:00,
2013-06-08 15:32:00,78.0,45.0,29.03,NW,314,2.0,6.0,31,0.00,,,0.00,,2013-06-08 19:32:00,
2013-06-08 15:53:00,77.0,43.0,29.03,North,353,2.0,6.0,30,0.00,,,0.00,,2013-06-08 19:53:00,
2013-06-08 16:02:00,79.0,46.0,29.03,West,267,3.0,5.0,31,0.00,,,0.00,,2013-06-08 20:02:00,
2013-06-08 16:22:00,81.0,45.0,29.03,WSW,238,3.0,6.0,28,0.00,,,0.00,,2013-06-08 20:22:00,
2013-06-08 16:32:00,81.0,45.0,29.03,West,279,3.0,6.0,28,0.00,,,0.00,,2013-06-08 20:32:00,
2013-06-08 16:53:00,79.0,43.0,29.03,WSW,247,4.0,6.0,28,0.00,,,0.00,,2013-06-08 20:53:00,
2013-06-08 17:02:00,82.0,44.0,29.03,NW,312,2.0,4.0,26,0.00,,,0.00,,2013-06-08 21:02:00,
2013-06-08 17:22:00,80.0,43.0,29.03,NNW,330,2.0,5.0,27,0.00,,,0.00,,2013-06-08 21:22:00,
2013-06-08 17:33:00,80.0,46.0,29.03,West,266,3.0,4.0,30,0.00,,,0.00,,2013-06-08 21:33:00,
2013-06-08 17:43:00,80.0,46.0,29.03,West,266,3.0,4.0,30,0.00,,,0.00,,2013-06-08 21:43:00,
2013-06-08 17:53:00,80.0,45.0,29.03,NW,309,2.0,6.0,29,0.00,,,0.00,,2013-06-08 21:53:00,
2013-06-08 18:02:00,81.0,44.0,29.03,WSW,242,2.0,5.0,27,0.00,,,0.00,,2013-06-08 22:02:00,
2013-06-08 18:23:00,80.0,43.0,29.03,NW,304,3.0,6.0,27,0.00,,,0.00,,2013-06-08 22:23:00,
2013-06-08 18:33:00,79.0,45.0,29.03,WNW,290,1.0,3.0,30,0.00,,,0.00,,2013-06-08 22:33:00,
2013-06-08 18:42:00,80.0,44.0,29.03,SW,224,2.0,6.0,28,0.00,,,0.00,,2013-06-08 22:42:00,
2013-06-08 18:53:00,80.0,44.0,29.03,SW,224,2.0,6.0,28,0.00,,,0.00,,2013-06-08 22:53:00,
2013-06-08 19:02:00,76.0,43.0,29.06,WNW,300,2.0,5.0,31,0.00,,,0.00,,2013-06-08 23:02:00,
2013-06-08 19:12:00,77.0,44.0,29.03,NNW,348,2.0,4.0,31,0.00,,,0.00,,2013-06-08 23:12:00,
2013-06-08 19:22:00,77.0,44.0,29.03,NNW,348,2.0,4.0,31,0.00,,,0.00,,2013-06-08 23:22:00,
2013-06-08 19:32:00,77.0,44.0,29.06,NNW,337,1.0,3.0,31,0.00,,,0.00,,2013-06-08 23:32:00,
2013-06-08 19:52:00,75.0,43.0,29.06,NNW,337,1.0,4.0,32,0.00,,,0.00,,2013-06-08 23:52:00,
2013-06-08 20:02:00,75.0,45.0,29.06,NNW,337,0.0,0.0,34,0.00,,,0.00,,2013-06-09 00:02:00,
2013-06-08 20:22:00,73.0,45.0,29.06,West,270,0.0,0.0,37,0.00,,,0.00,,2013-06-09 00:22:00,
2013-06-08 20:32:00,72.0,46.0,29.06,West,270,0.0,0.0,39,0.00,,,0.00,,2013-06-09 00:32:00,
2013-06-08 20:52:00,70.0,46.0,29.06,West,270,0.0,0.0,43,0.00,,,0.00,,2013-06-09 00:52:00,
2013-06-08 21:02:00,69.0,46.0,29.06,West,270,0.0,0.0,44,0.00,,,0.00,,2013-06-09 01:02:00,
2013-06-08 21:12:00,68.0,46.0,29.06,West,270,0.0,0.0,46,0.00,,,0.00,,2013-06-09 01:12:00,
2013-06-08 21:22:00,68.0,46.0,29.06,West,270,0.0,0.0,46,0.00,,,0.00,,2013-06-09 01:22:00,
2013-06-08 21:32:00,66.0,46.0,29.09,West,270,0.0,0.0,49,0.00,,,0.00,,2013-06-09 01:32:00,
2013-06-08 21:52:00,66.0,48.0,29.06,West,270,0.0,0.0,53,0.00,,,0.00,,2013-06-09 01:52:00,
2013-06-08 22:02:00,64.0,49.0,29.09,West,270,0.0,0.0,59,0.00,,,0.00,,2013-06-09 02:02:00,
2013-06-08 22:12:00,64.0,49.0,29.09,West,270,0.0,0.0,59,0.00,,,0.00,,2013-06-09 02:12:00,
2013-06-08 22:22:00,63.0,49.0,29.09,West,270,0.0,0.0,60,0.00,,,0.00,,2013-06-09 02:22:00,
2013-06-08 22:32:00,62.0,51.0,29.09,West,270,0.0,0.0,66,0.00,,,0.00,,2013-06-09 02:32:00,
2013-06-08 22:42:00,62.0,51.0,29.09,West,270,0.0,0.0,66,0.00,,,0.00,,2013-06-09 02:42:00,
2013-06-08 22:52:00,62.0,51.0,29.08,West,270,0.0,0.0,68,0.00,,,0.00,,2013-06-09 02:52:00,
2013-06-08 23:02:00,61.0,52.0,29.11,West,270,0.0,0.0,71,0.00,,,0.00,,2013-06-09 03:02:00,
2013-06-08 23:12:00,61.0,52.0,29.11,West,270,0.0,0.0,71,0.00,,,0.00,,2013-06-09 03:12:00,
2013-06-08 23:22:00,61.0,52.0,29.11,West,270,0.0,0.0,73,0.00,,,0.00,,2013-06-09 03:22:00,
2013-06-08 23:33:00,60.0,52.0,29.11,West,270,0.0,0.0,74,0.00,,,0.00,,2013-06-09 03:33:00,
2013-06-08 23:43:00,60.0,52.0,29.11,West,270,0.0,0.0,74,0.00,,,0.00,,2013-06-09 03:43:00,
2013-06-08 23:53:00,60.0,53.0,29.12,NNW,337,0.0,0.0,77,0.00,,,0.00,,2013-06-09 03:53:00,